Regional Weather Roundup
Issued by NWS

Home | Current Version | Previous Version | Text Only | Print | Product List | Glossary On
Versions: 1 2 3 4 5 6 7 8 9 10 11 12 13 14 15 16 17 18 19 20 21 22 23 24 25 26 27 28 29 30 31 32 33 34 35 36 37 38 39 40 41 42 43 44 45 46 47 48 49 50
000
ASUS44 KLUB 122210
RWRTX
WEST TEXAS WEATHER ROUNDUP
NATIONAL WEATHER SERVICE LUBBOCK TX
500 PM CDT SAT JUL 12 2014

NOTE: "FAIR" INDICATES FEW OR NO CLOUDS BELOW 12,000 FEET WITH NO
SIGNIFICANT WEATHER AND/OR OBSTRUCTIONS TO VISIBILITY.

TXZ004-006>008-010-012-014-016-OKZ002-122300-
TEXAS PANHANDLE/OKLAHOMA PANHANDLE

CITY           SKY/WX    TMP DP  RH WIND       PRES   REMARKS
AMARILLO       MOSUNNY   87  61  41 S14G24    30.15F
BORGER         MOSUNNY   92  58  31 SW15G23   30.09F
CANADIAN       SUNNY     93  60  33 SW17G25   30.05F
DALHART        SUNNY     92  54  27 S15       30.13F
DUMAS          SUNNY     90  58  34 S13G25    30.11F
GUYMON         SUNNY     95  55  26 S15G25    30.04F
HEREFORD       SUNNY     86  64  48 S15G21    30.16F
PAMPA          SUNNY     89  55  31 S18       30.13F
PERRYTON       SUNNY     96  55  25 S20G29    30.06F
$$

TXZ026-029-035-045-048-122300-
SOUTHERN PANHANDLE/SOUTH PLAINS/ROLLING PLAINS

CITY           SKY/WX    TMP DP  RH WIND       PRES   REMARKS
CHILDRESS      SUNNY     98  49  18 SW21G28   30.06F HX  95
SEMINOLE       MOSUNNY   91  56  29 SE12G20   30.11F
LUBBOCK        MOSUNNY   90  60  36 S17       30.12F
PLAINVIEW      MOSUNNY   83  62  48 SW7       30.13F
SNYDER         SUNNY     94  51  23 S15G26    30.10F
$$

TXZ052-054-060>062-072-078-127-140-154-169-122300-
PERMIAN BASIN/CONCHO VALLEY/BIG COUNTRY/EDWARDS PLATEAU

CITY           SKY/WX    TMP DP  RH WIND       PRES   REMARKS
ABILENE        SUNNY     97  46  17 S20G26    30.08F
BIG SPRING     SUNNY     94  54  25 S21G28    30.12F
BRADY          SUNNY     97  48  19 SE14      30.10F
BROWNWOOD      SUNNY     95  50  21 SE12G18   30.08F
JUNCTION       SUNNY     94  54  25 S13G20    30.10F
MIDLAND        MOSUNNY   93  59  31 SE18G28   30.10F
ODESSA         SUNNY     90  58  33 S12G25    30.10F
SAN ANGELO     SUNNY     96  51  21 S15G24    30.08F
SWEETWATER     SUNNY     95  42  16 SE14G24   30.13F
WINK           SUNNY     95  59  30 SE16G24   30.04F
$$

TXZ055-058-074-075-080-082-122300-
FAR WEST/SOUTHWEST MOUNTAINS/TRANS PECOS

CITY           SKY/WX    TMP DP  RH WIND       PRES   REMARKS
ALPINE         CLOUDY    80  59  48 SE18      30.22F
DRYDEN           N/A     95  61  32 SE28G33   30.06F HX  95
EL PASO        CLOUDY    85  57  38 S10       30.07F
FORT STOCKTON  SUNNY     89  60  37 SE20      30.08F
GUADALUPE PASS CLOUDY    71  57  61 NE20        N/A
MARFA          PTSUNNY   81  57  44 SE14G21   30.21F
PECOS          TSTM      72  63  73 E5G53     30.08R VSB 1/2
PRESIDIO       FAIR      94  56  27 SE13G22   30.02F
$$

TXZ014-016-019-021>030-083-122300
TEXAS TECH WEST TEXAS MESONET/TEXAS PANHANDLE/NORTHERN SOUTH PLAINS

CITY           SKY/WX    TMP DP  RH WIND       PRES   REMARKS
ABERNATHY 5ENE   N/A     89  57  34 S10       30.14F
AMARILLO 9NNE    N/A     88  61  40 S18       30.12F
AMARILLO 7SSE    N/A     86  61  43 SW8       30.16F
AMHERST 1NE      N/A     83  61  47 S6        30.16F
BOOTLEG 11WNW    N/A     85  59  41 S12       30.20F
CANADIAN 6E      N/A     93  62  35 S18       30.05F
CAPROCK CYN SP   N/A     89  59  37 S13       30.10F
CHILDRESS 2NNE   N/A     96  45  17 S14       30.06F
CLARENDON 2WSW   N/A     89  57  33 S12       30.11F
CLAUDE 12SW      N/A     87  60  39 S7        30.15F
DIMMITT 2NE      N/A     85  61  44 S13       30.18F
FLOYDADA 2NNE    N/A     88  55  32 S15       30.13F
FRIONA 2NE       N/A     86  58  38 S16G28    30.18F
GOODLETT 3W      N/A     99  42  14 S17       30.03F
HART 3N          N/A     83  60  46 S12       30.17F
HEREFORD 2NW     N/A     85  58  40 S13       30.16F
MCLEAN 1E        N/A     91  56  30 S18G30    30.10F
MEMPHIS 1NE      N/A     95  54  25 S12       30.06F
MULESHOE 2SSW    N/A     85  59  41 SE9       30.16F
OLTON 6S         N/A     83  60  44 SE7       30.16F
PALO DURO SP     N/A     89  61  38 S5        30.16F
PAMPA 2E         N/A     89  57  33 S17       30.12F
PLAINVIEW 1S     N/A     85  61  43 S10       30.14F
SILVERTON 7ESE   N/A     89  63  41 S15       30.14F
TULIA 2ENE       N/A     86  62  44 S14       30.16F
TURKEY 2WSW      N/A     91  58  33 S15       30.08F
UMBARGER 3NNE    N/A     86  61  43 S12       30.17F
$$

TXZ033>036-039>041-045>048-122300
TEXAS TECH WEST TEXAS MESONET/SOUTH PLAINS

CITY           SKY/WX    TMP DP  RH WIND       PRES   REMARKS
AIKEN 3WSW       N/A     84  62  48 S12       30.15F
ANDREWS 2NE      N/A     92  54  27 SE12      30.10F
ANTON 6SSW       N/A     88  60  39 SE14      30.13F
BROWNFIELD 2S    N/A     91  55  30 S12       30.12F
DENVR CTY 7WNW   N/A     88  54  30 SE12      30.12F
GAIL 2ESE        N/A     94  54  25 S15       30.08F
LAMESA 2SE       N/A     89  58  35 SE15      30.12F
LEVELLAND 4S     N/A     89  55  32 S13       30.13F
LUBBOCK 3WNW     N/A     91  58  32 S10       30.12F
MORTON 1ENE      N/A     88  58  36 SE14      30.14F
ODONNELL 1N      N/A     90  55  30 SE15      30.12F
PLAINS 3N        N/A     87  57  35 SE14      30.13F
RALLS 1SE        N/A     88  59  36 S16       30.13F
REESE CENTER     N/A     88  56  33 S14       30.12F
SEAGRAVES 1SW    N/A     89  57  33 SE12      30.12F
SEMINOLE 2NNE    N/A     91  55  29 S13       30.11F
SLATON 2NE       N/A     89  56  32 S18       30.12F
SNYDER 3E        N/A     95  45  18 S15       30.10S
SUNDOWN 8SW      N/A     88  60  38 SE13      30.13F
TAHOKA 3NNE      N/A     92  57  31 S16       30.11F
WOLFFORTH 6SSW   N/A     90  58  33 SE12G22   30.13F
$$

TXZ031-032-036>038-042>044-122300-
TEXAS TECH WEST TEXAS MESONET/ROLLING PLAINS

CITY           SKY/WX    TMP DP  RH WIND       PRES   REMARKS
ASPERMONT 3NE    N/A     99  42  14 S18       30.06F HX  95
FLUVANNA 3WNW    N/A     93  49  22 S15       30.10F
GRAHAM 5SSW      N/A     90  54  29 S16       30.10F
GUTHRIE 10WSW    N/A     98  48  18 SW16      30.05F
HASKELL 1NW      N/A     98  37  12 S17       30.05F
JAYTON 1SSE      N/A     97  43  15 S16G25    30.07F
KNOX CITY 3NW    N/A     99  40  13 S18       30.04F
LK A HENRY 1NW   N/A     95  49  21 S17       30.07F
NORTHFIELD 1S    N/A     95  54  25 S14       30.06F
ODELL 4ENE       N/A     98  39  13 S17       30.05F
PADUCAH 10SW     N/A     96  47  18 S15G25    30.06F
POST 1NE         N/A     91  53  27 S17       30.09F
RRING SPRGS 3N   N/A     92  55  28 S16       30.09F
SEYMOUR 3NW      N/A    100  39  12 S15G25    30.03F HX  95
SPUR 1W          N/A     94  47  20 S10       30.08F
WEINERT 2NNE     N/A     99  44  15 S14       30.05F HX  95
WHITE RVR 6NE    N/A     94  56  27 S16       30.10F
$$

TXZ052-054-060>062-072-078-127-140-154-169-122300-
TEXAS TECH WEST TEXAS MESONET/PERMIAN BASIN/
CONCHO VALLEY/BIG COUNTRY/EDWARDS PLATEAU

CITY           SKY/WX    TMP DP  RH WIND       PRES   REMARKS
COYANOSA 2N      N/A     95  60  31 SE15      30.06R
JUNCTION 1SSW    N/A     95  57  27 S7        30.10F
MERTZON 3NNE     N/A     94  55  27 S13       30.10F
SAN ANGELO 7NW   N/A     96  46  18 S16       30.08F
STRLNG CT 4WSW   N/A     94  55  26 S12       30.10F
ST LAWRNCE 5SW   N/A     90  54  28 SE20      30.11F
SWEETWATR 11SW   N/A     95  48  19 SE18      30.12F
WALL 1E          N/A     97  47  18 SE16      30.08F
$$

TXZ055-058-074-075-080-082-122300-
TEXAS TECH WEST TEXAS MESONET/FAR WEST/SOUTHWEST MOUNTAINS/TRANS PECOS

CITY           SKY/WX    TMP DP  RH WIND       PRES   REMARKS
PRSMN GAP BBNP   N/A     90  61  37 E9        30.07F
GUADLPE MTN NP   N/A     69  59  69 NW6       30.25F
$$


USA.gov is the U.S. government's official web portal to all federal, state and local government web resources and services.